| time (UTC) | temp C | wind direction | speed KPH | gust KPH | rain 1hr cm | rain 24hr cm | rain mn cm | humidity % | barometer mb |
| 20260509175525 | 21 | 0 | 0.0 | 0.0 | 0.00 | 0.00 | 0.00 | 41 | 1012.8 |
| 20260509175004 | 21 | 0 | 0.0 | 0.0 | 0.00 | 0.00 | 0.00 | 41 | 1012.8 |
| 20260509174504 | 21 | 0 | 0.0 | 0.0 | 0.00 | 0.00 | 0.00 | 40 | 1012.7 |
| 20260509174004 | 21 | 0 | 0.0 | 0.0 | 0.00 | 0.00 | 0.00 | 40 | 1012.7 |
| 20260509173504 | 22 | 0 | 0.0 | 0.0 | 0.00 | 0.00 | 0.00 | 40 | 1012.8 |
| 20260509173004 | 22 | 0 | 0.0 | 0.0 | 0.00 | 0.00 | 0.00 | 40 | 1012.8 |
| 20260509172504 | 22 | 275 | 0.0 | 3.2 | 0.00 | 0.00 | 0.00 | 40 | 1012.8 |
| 20260509172004 | 22 | 268 | 0.0 | 3.2 | 0.00 | 0.00 | 0.00 | 40 | 1012.9 |
| 20260509171504 | 22 | 305 | 0.0 | 3.2 | 0.00 | 0.00 | 0.00 | 36 | 1012.7 |
| 20260509171025 | 22 | 315 | 0.0 | 3.2 | 0.00 | 0.00 | 0.00 | 35 | 1012.8 |
| 20260509170504 | 23 | 315 | 0.0 | 1.6 | 0.00 | 0.00 | 0.00 | 36 | 1012.9 |
| 20260509170004 | 23 | 332 | 0.0 | 1.6 | 0.00 | 0.00 | 0.00 | 36 | 1012.7 |
| 20260509165504 | 23 | 328 | 0.0 | 1.6 | 0.00 | 0.00 | 0.00 | 35 | 1012.9 |
| 20260509165025 | 23 | 295 | 0.0 | 1.6 | 0.00 | 0.00 | 0.00 | 35 | 1012.8 |
| 20260509164504 | 23 | 298 | 0.0 | 1.6 | 0.00 | 0.00 | 0.00 | 35 | 1012.9 |
| 20260509164004 | 23 | 302 | 3.2 | 6.4 | 0.00 | 0.00 | 0.00 | 35 | 1012.9 |
| 20260509163504 | 23 | 279 | 4.8 | 8.0 | 0.00 | 0.00 | 0.00 | 34 | 1012.9 |
| 20260509163025 | 23 | 276 | 4.8 | 8.0 | 0.00 | 0.00 | 0.00 | 35 | 1012.9 |
| 20260509162504 | 23 | 309 | 6.4 | 8.0 | 0.00 | 0.00 | 0.00 | 36 | 1012.9 |
| 20260509162004 | 23 | 304 | 8.0 | 12.9 | 0.00 | 0.00 | 0.00 | 35 | 1013.0 |
| 20260509161504 | 23 | 273 | 8.0 | 12.9 | 0.00 | 0.00 | 0.00 | 34 | 1013.0 |
| 20260509161025 | 23 | 247 | 6.4 | 9.7 | 0.00 | 0.00 | 0.00 | 34 | 1013.1 |
| 20260509160504 | 23 | 242 | 4.8 | 6.4 | 0.00 | 0.00 | 0.00 | 35 | 1013.1 |
| 20260509160004 | 23 | 280 | 6.4 | 11.3 | 0.00 | 0.00 | 0.00 | 35 | 1013.1 |
| 20260509155504 | 23 | 298 | 9.7 | 14.5 | 0.00 | 0.00 | 0.00 | 34 | 1013.1 |
| 20260509155004 | 23 | 279 | 11.3 | 14.5 | 0.00 | 0.00 | 0.00 | 35 | 1013.3 |
| 20260509154504 | 23 | 268 | 12.9 | 17.7 | 0.00 | 0.00 | 0.00 | 34 | 1013.3 |
| 20260509154025 | 23 | 261 | 11.3 | 17.7 | 0.00 | 0.00 | 0.00 | 34 | 1013.3 |
| 20260509153504 | 23 | 237 | 8.0 | 11.3 | 0.00 | 0.00 | 0.00 | 36 | 1013.4 |
| 20260509153025 | 23 | 216 | 8.0 | 12.9 | 0.00 | 0.00 | 0.00 | 36 | 1013.2 |
| 20260509152504 | 23 | 242 | 9.7 | 12.9 | 0.00 | 0.00 | 0.00 | 36 | 1013.2 |
| 20260509152004 | 23 | 282 | 9.7 | 12.9 | 0.00 | 0.00 | 0.00 | 37 | 1013.3 |
| 20260509151504 | 23 | 286 | 12.9 | 16.1 | 0.00 | 0.00 | 0.00 | 37 | 1013.2 |
| 20260509151004 | 23 | 261 | 11.3 | 16.1 | 0.00 | 0.03 | 0.00 | 37 | 1013.2 |
| 20260509150504 | 23 | 262 | 9.7 | 11.3 | 0.00 | 0.03 | 0.00 | 37 | 1013.2 |
| 20260509150004 | 23 | 258 | 8.0 | 14.5 | 0.00 | 0.05 | 0.00 | 37 | 1013.3 |
| 20260509145504 | 23 | 221 | 4.8 | 14.5 | 0.00 | 0.10 | 0.00 | 37 | 1013.2 |
| 20260509145025 | 23 | 179 | 6.4 | 11.3 | 0.00 | 0.13 | 0.00 | 38 | 1013.1 |
| 20260509144504 | 23 | 180 | 9.7 | 12.9 | 0.00 | 0.15 | 0.00 | 37 | 1013.3 |
| 20260509144004 | 23 | 201 | 9.7 | 12.9 | 0.00 | 0.18 | 0.00 | 37 | 1013.2 |
| 20260509143504 | 23 | 210 | 8.0 | 16.1 | 0.00 | 0.18 | 0.00 | 39 | 1013.1 |
| 20260509143004 | 23 | 236 | 9.7 | 16.1 | 0.00 | 0.20 | 0.00 | 39 | 1013.3 |
| 20260509142504 | 23 | 257 | 12.9 | 16.1 | 0.00 | 0.23 | 0.00 | 38 | 1013.2 |
| 20260509142004 | 23 | 238 | 9.7 | 16.1 | 0.00 | 0.23 | 0.00 | 39 | 1013.3 |
| 20260509141504 | 23 | 205 | 8.0 | 16.1 | 0.00 | 0.28 | 0.00 | 40 | 1013.4 |
| 20260509141004 | 23 | 157 | 9.7 | 12.9 | 0.00 | 0.33 | 0.00 | 40 | 1013.4 |
| 20260509140504 | 23 | 158 | 9.7 | 11.3 | 0.00 | 0.36 | 0.00 | 40 | 1013.4 |
| 20260509140005 | 23 | 198 | 11.3 | 19.3 | 0.00 | 0.51 | 0.00 | 40 | 1013.5 |
| 20260509135504 | 23 | 198 | 9.7 | 19.3 | 0.00 | 0.86 | 0.00 | 40 | 1013.5 |
| 20260509135004 | 23 | 258 | 8.0 | 16.1 | 0.00 | 0.94 | 0.00 | 40 | 1013.6 |
| 20260509134504 | 23 | 252 | 9.7 | 16.1 | 0.00 | 0.97 | 0.00 | 40 | 1013.7 |
| 20260509134004 | 23 | 209 | 11.3 | 19.3 | 0.00 | 0.97 | 0.00 | 40 | 1013.7 |
| 20260509133504 | 23 | 213 | 11.3 | 19.3 | 0.00 | 0.99 | 0.00 | 40 | 1013.9 |
| 20260509133004 | 23 | 200 | 6.4 | 14.5 | 0.00 | 0.99 | 0.00 | 40 | 1013.9 |
| 20260509132504 | 23 | 212 | 8.0 | 14.5 | 0.00 | 1.04 | 0.00 | 40 | 1013.9 |
| 20260509132004 | 23 | 268 | 6.4 | 14.5 | 0.00 | 1.04 | 0.00 | 40 | 1014.0 |
| 20260509131525 | 23 | 305 | 6.4 | 9.7 | 0.00 | 1.04 | 0.00 | 41 | 1014.1 |
| 20260509131004 | 23 | 265 | 6.4 | 9.7 | 0.00 | 1.04 | 0.00 | 41 | 1014.0 |
| 20260509130504 | 22 | 220 | 9.7 | 17.7 | 0.00 | 1.04 | 0.00 | 40 | 1013.9 |
| 20260509130004 | 22 | 221 | 12.9 | 17.7 | 0.00 | 1.04 | 0.00 | 40 | 1014.1 |
| 20260509125504 | 22 | 254 | 12.9 | 17.7 | 0.00 | 1.04 | 0.00 | 40 | 1014.2 |
| 20260509125004 | 23 | 263 | 11.3 | 17.7 | 0.00 | 1.04 | 0.00 | 41 | 1014.2 |
| 20260509124504 | 22 | 267 | 9.7 | 17.7 | 0.00 | 1.04 | 0.00 | 41 | 1014.1 |
| 20260509124004 | 22 | 294 | 6.4 | 12.9 | 0.00 | 1.04 | 0.00 | 41 | 1014.2 |
| 20260509123504 | 22 | 267 | 6.4 | 17.7 | 0.00 | 1.04 | 0.00 | 42 | 1014.1 |
| 20260509123004 | 22 | 268 | 11.3 | 17.7 | 0.00 | 1.04 | 0.00 | 41 | 1014.2 |
| 20260509122504 | 22 | 288 | 12.9 | 17.7 | 0.00 | 1.04 | 0.00 | 41 | 1014.1 |
| 20260509122004 | 22 | 270 | 11.3 | 17.7 | 0.00 | 1.04 | 0.00 | 41 | 1014.1 |
| 20260509121504 | 22 | 234 | 8.0 | 12.9 | 0.00 | 1.04 | 0.00 | 41 | 1014.3 |
| 20260509121025 | 22 | 197 | 8.0 | 12.9 | 0.00 | 1.04 | 0.00 | 41 | 1014.2 |
| 20260509120504 | 22 | 228 | 8.0 | 12.9 | 0.00 | 1.04 | 0.00 | 41 | 1014.3 |
| 20260509120025 | 22 | 240 | 6.4 | 12.9 | 0.00 | 1.04 | 0.00 | 41 | 1014.2 |
| 20260509115504 | 22 | 215 | 6.4 | 12.9 | 0.00 | 1.04 | 0.00 | 42 | 1014.4 |
| 20260509115004 | 22 | 186 | 8.0 | 12.9 | 0.00 | 1.04 | 0.00 | 44 | 1014.3 |
| 20260509114504 | 22 | 113 | 8.0 | 11.3 | 0.00 | 1.04 | 0.00 | 44 | 1014.4 |
| 20260509114025 | 22 | 123 | 8.0 | 11.3 | 0.00 | 1.04 | 0.00 | 44 | 1014.5 |
| 20260509113504 | 22 | 151 | 4.8 | 8.0 | 0.00 | 1.04 | 0.00 | 46 | 1014.5 |
| 20260509113004 | 22 | 215 | 4.8 | 8.0 | 0.00 | 1.04 | 0.00 | 48 | 1014.5 |
| 20260509112525 | 22 | 268 | 4.8 | 11.3 | 0.00 | 1.04 | 0.00 | 48 | 1014.6 |
| 20260509112004 | 22 | 279 | 4.8 | 11.3 | 0.00 | 1.04 | 0.00 | 47 | 1014.7 |
| 20260509111504 | 22 | 236 | 6.4 | 12.9 | 0.00 | 1.04 | 0.00 | 48 | 1014.7 |
| 20260509111004 | 22 | 216 | 9.7 | 12.9 | 0.00 | 1.04 | 0.00 | 49 | 1014.8 |
| 20260509110504 | 22 | 229 | 11.3 | 12.9 | 0.00 | 1.04 | 0.00 | 49 | 1014.9 |
| 20260509110025 | 22 | 287 | 11.3 | 12.9 | 0.00 | 1.04 | 0.00 | 49 | 1015.0 |
| 20260509105504 | 22 | 290 | 9.7 | 12.9 | 0.00 | 1.04 | 0.00 | 50 | 1015.0 |
| 20260509105004 | 22 | 264 | 8.0 | 12.9 | 0.00 | 1.04 | 0.00 | 50 | 1015.2 |
| 20260509104504 | 22 | 290 | 4.8 | 12.9 | 0.00 | 1.04 | 0.00 | 50 | 1015.3 |
| 20260509104004 | 21 | 305 | 6.4 | 11.3 | 0.00 | 1.04 | 0.00 | 50 | 1015.3 |
| 20260509103504 | 21 | 297 | 8.0 | 11.3 | 0.00 | 1.04 | 0.00 | 50 | 1015.3 |
| 20260509103004 | 21 | 298 | 6.4 | 11.3 | 0.00 | 1.04 | 0.00 | 51 | 1015.3 |
| 20260509102540 | 21 | 281 | 6.4 | 9.7 | 0.00 | 1.04 | 0.00 | 51 | 1015.5 |
| 20260509102004 | 21 | 263 | 8.0 | 11.3 | 0.00 | 1.04 | 0.00 | 51 | 1015.5 |
| 20260509101525 | 21 | 289 | 8.0 | 11.3 | 0.00 | 1.04 | 0.00 | 50 | 1015.5 |
| 20260509101004 | 21 | 359 | 8.0 | 8.0 | 0.00 | 1.04 | 0.00 | 50 | 1015.5 |
| 20260509100504 | 21 | 40 | 6.4 | 8.0 | 0.00 | 1.04 | 0.00 | 50 | 1015.6 |
| 20260509100005 | 21 | 113 | 6.4 | 9.7 | 0.00 | 1.04 | 0.00 | 50 | 1015.6 |
| 20260509095504 | 21 | 190 | 6.4 | 9.7 | 0.00 | 1.04 | 0.00 | 51 | 1015.7 |
| 20260509095004 | 21 | 195 | 8.0 | 9.7 | 0.00 | 1.04 | 0.00 | 52 | 1015.7 |
| 20260509094525 | 21 | 167 | 6.4 | 9.7 | 0.00 | 1.04 | 0.00 | 52 | 1015.7 |
| 20260509094025 | 21 | 341 | 4.8 | 6.4 | 0.00 | 1.04 | 0.00 | 53 | 1015.8 |
| 20260509093504 | 20 | 353 | 6.4 | 9.7 | 0.00 | 1.04 | 0.00 | 52 | 1015.8 |
| 20260509093025 | 20 | 1 | 6.4 | 9.7 | 0.00 | 1.04 | 0.00 | 52 | 1015.8 |
| 20260509092505 | 20 | 31 | 3.2 | 6.4 | 0.00 | 1.04 | 0.00 | 54 | 1015.7 |
| 20260509091525 | 20 | 357 | 3.2 | 6.4 | 0.00 | 1.04 | 0.00 | 55 | 1015.7 |
| 20260509091025 | 20 | 7 | 1.6 | 4.8 | 0.00 | 1.04 | 0.00 | 55 | 1015.8 |
| 20260509090504 | 20 | 335 | 1.6 | 6.4 | 0.00 | 1.04 | 0.00 | 55 | 1015.9 |
| 20260509090004 | 20 | 322 | 4.8 | 6.4 | 0.00 | 1.04 | 0.00 | 55 | 1015.7 |
| 20260509085504 | 20 | 316 | 3.2 | 6.4 | 0.00 | 1.04 | 0.00 | 56 | 1015.9 |
| 20260509085004 | 20 | 12 | 3.2 | 4.8 | 0.00 | 1.04 | 0.00 | 58 | 1015.9 |
| 20260509084504 | 20 | 39 | 4.8 | 6.4 | 0.00 | 1.04 | 0.00 | 58 | 1015.9 |
| 20260509084004 | 20 | 153 | 4.8 | 6.4 | 0.00 | 1.04 | 0.00 | 57 | 1015.9 |
| 20260509083504 | 20 | 119 | 3.2 | 6.4 | 0.00 | 1.04 | 0.00 | 58 | 1015.9 |
| 20260509083004 | 20 | 43 | 3.2 | 4.8 | 0.00 | 1.04 | 0.00 | 60 | 1015.9 |
| 20260509082504 | 19 | 24 | 3.2 | 4.8 | 0.00 | 1.04 | 0.00 | 61 | 1016.0 |
| 20260509082004 | 19 | 350 | 1.6 | 4.8 | 0.00 | 1.04 | 0.00 | 61 | 1015.7 |
| 20260509081504 | 19 | 7 | 1.6 | 6.4 | 0.00 | 1.04 | 0.00 | 61 | 1015.8 |
| 20260509081004 | 18 | 63 | 4.8 | 6.4 | 0.00 | 1.04 | 0.00 | 62 | 1015.9 |
| 20260509080504 | 18 | 69 | 4.8 | 6.4 | 0.00 | 1.04 | 0.00 | 62 | 1016.0 |
| 20260509080004 | 18 | 38 | 4.8 | 6.4 | 0.00 | 1.04 | 0.00 | 62 | 1016.0 |
| 20260509075504 | 18 | 40 | 4.8 | 6.4 | 0.00 | 1.04 | 0.00 | 62 | 1016.0 |
| 20260509075025 | 18 | 43 | 4.8 | 8.0 | 0.00 | 1.04 | 0.00 | 63 | 1016.0 |
| 20260509074504 | 18 | 29 | 6.4 | 8.0 | 0.00 | 1.04 | 0.00 | 63 | 1016.0 |
| 20260509074004 | 18 | 25 | 4.8 | 6.4 | 0.00 | 1.04 | 0.00 | 64 | 1016.2 |
| 20260509073504 | 18 | 21 | 3.2 | 6.4 | 0.00 | 1.04 | 0.00 | 65 | 1015.9 |
| 20260509073004 | 18 | 50 | 3.2 | 6.4 | 0.00 | 1.04 | 0.00 | 66 | 1016.1 |
| 20260509072525 | 17 | 59 | 4.8 | 6.4 | 0.00 | 1.04 | 0.00 | 66 | 1015.9 |
| 20260509072004 | 17 | 61 | 3.2 | 4.8 | 0.00 | 1.04 | 0.00 | 68 | 1016.0 |
| 20260509071525 | 17 | 52 | 3.2 | 8.0 | 0.00 | 1.04 | 0.00 | 69 | 1016.0 |
| 20260509071004 | 17 | 42 | 1.6 | 8.0 | 0.00 | 1.04 | 0.00 | 72 | 1016.0 |
| 20260509070504 | 17 | 315 | 0.0 | 1.6 | 0.00 | 1.04 | 0.00 | 74 | 1016.0 |
| 20260509070004 | 17 | 355 | 0.0 | 3.2 | 0.00 | 1.04 | 0.00 | 74 | 1016.0 |
| 20260509065525 | 16 | 14 | 1.6 | 3.2 | 0.00 | 1.04 | 0.00 | 74 | 1015.9 |
| 20260509065004 | 16 | 11 | 3.2 | 6.4 | 0.00 | 1.04 | 0.00 | 74 | 1015.9 |
| 20260509064524 | 16 | 6 | 4.8 | 6.4 | 0.00 | 1.04 | 0.00 | 74 | 1016.1 |
| 20260509064025 | 15 | 4 | 4.8 | 6.4 | 0.00 | 1.04 | 0.00 | 74 | 1016.0 |
| 20260509063504 | 15 | 359 | 6.4 | 6.4 | 0.00 | 1.04 | 0.00 | 75 | 1015.9 |
| 20260509063004 | 15 | 357 | 6.4 | 11.3 | 0.00 | 1.04 | 0.00 | 75 | 1016.0 |
| 20260509062504 | 15 | 11 | 8.0 | 11.3 | 0.00 | 1.04 | 0.00 | 76 | 1016.0 |
| 20260509062004 | 14 | 15 | 6.4 | 8.0 | 0.00 | 1.04 | 0.00 | 77 | 1015.8 |
| 20260509061525 | 14 | 4 | 6.4 | 8.0 | 0.00 | 1.04 | 0.00 | 77 | 1015.9 |
| 20260509061004 | 13 | 4 | 6.4 | 8.0 | 0.00 | 1.04 | 0.00 | 78 | 1015.9 |
| 20260509060504 | 13 | 2 | 4.8 | 8.0 | 0.00 | 1.04 | 0.00 | 78 | 1016.0 |
| 20260509060004 | 13 | 356 | 4.8 | 8.0 | 0.00 | 1.04 | 0.00 | 78 | 1015.9 |
| 20260509055525 | 13 | 354 | 6.4 | 8.0 | 0.00 | 1.04 | 0.00 | 78 | 1015.8 |
| 20260509055004 | 13 | 360 | 6.4 | 6.4 | 0.00 | 1.04 | 0.00 | 78 | 1016.0 |
| 20260509054525 | 13 | 358 | 4.8 | 6.4 | 0.00 | 1.04 | 0.00 | 79 | 1015.7 |
| 20260509054025 | 13 | 1 | 4.8 | 6.4 | 0.00 | 1.04 | 0.00 | 79 | 1015.8 |
| 20260509053504 | 13 | 4 | 4.8 | 6.4 | 0.00 | 1.04 | 0.00 | 80 | 1015.9 |
| 20260509053004 | 12 | 7 | 4.8 | 6.4 | 0.00 | 1.04 | 0.00 | 80 | 1016.0 |
| 20260509052519 | 12 | 14 | 6.4 | 8.0 | 0.00 | 1.04 | 0.00 | 81 | 1016.0 |
| 20260509052004 | 12 | 19 | 4.8 | 8.0 | 0.00 | 1.04 | 0.00 | 81 | 1016.0 |
| 20260509051504 | 12 | 9 | 4.8 | 6.4 | 0.00 | 1.04 | 0.00 | 84 | 1015.6 |
| 20260509051004 | 12 | 360 | 4.8 | 4.8 | 0.00 | 1.04 | 0.00 | 84 | 1015.8 |
| 20260509050504 | 11 | 351 | 3.2 | 4.8 | 0.00 | 1.04 | 0.00 | 84 | 1015.8 |
| 20260509050004 | 11 | 335 | 3.2 | 4.8 | 0.00 | 1.04 | 0.00 | 84 | 1015.8 |
| 20260509045525 | 11 | 326 | 4.8 | 6.4 | 0.00 | 1.04 | 0.00 | 85 | 1015.7 |
| 20260509045004 | 11 | 343 | 6.4 | 8.0 | 0.00 | 1.04 | 0.00 | 85 | 1015.5 |
| 20260509044504 | 11 | 7 | 8.0 | 9.7 | 0.00 | 1.04 | 0.00 | 86 | 1015.5 |
| 20260509044004 | 11 | 18 | 8.0 | 9.7 | 0.00 | 1.04 | 0.00 | 86 | 1015.2 |
| 20260509043504 | 11 | 17 | 8.0 | 12.9 | 0.00 | 1.04 | 0.00 | 87 | 1015.1 |
| 20260509043004 | 10 | 16 | 8.0 | 12.9 | 0.00 | 1.04 | 0.00 | 86 | 1015.2 |
| 20260509042504 | 10 | 18 | 8.0 | 8.0 | 0.00 | 1.04 | 0.00 | 86 | 1015.2 |
| 20260509042004 | 10 | 10 | 6.4 | 8.0 | 0.00 | 1.04 | 0.00 | 86 | 1015.2 |
| 20260509041525 | 10 | 3 | 6.4 | 6.4 | 0.00 | 1.04 | 0.00 | 85 | 1015.1 |
| 20260509041004 | 10 | 359 | 6.4 | 6.4 | 0.00 | 1.04 | 0.00 | 85 | 1015.0 |
| 20260509040504 | 10 | 356 | 6.4 | 6.4 | 0.00 | 1.04 | 0.00 | 84 | 1014.9 |
| 20260509040004 | 10 | 357 | 6.4 | 6.4 | 0.00 | 1.04 | 0.00 | 84 | 1014.9 |
| 20260509035504 | 10 | 4 | 4.8 | 6.4 | 0.00 | 1.04 | 0.00 | 84 | 1015.0 |
| 20260509035003 | 10 | 8 | 6.4 | 6.4 | 0.00 | 1.04 | 0.00 | 83 | 1015.0 |
| 20260509034525 | 10 | 11 | 6.4 | 8.0 | 0.00 | 1.04 | 0.00 | 83 | 1014.9 |
| 20260509034004 | 10 | 16 | 8.0 | 11.3 | 0.00 | 1.04 | 0.00 | 82 | 1014.8 |
| 20260509033504 | 10 | 19 | 9.7 | 11.3 | 0.00 | 1.04 | 0.00 | 82 | 1014.9 |
| 20260509033004 | 11 | 18 | 9.7 | 11.3 | 0.00 | 1.04 | 0.00 | 81 | 1015.0 |
| 20260509032504 | 11 | 16 | 9.7 | 12.9 | 0.00 | 1.04 | 0.00 | 81 | 1014.9 |
| 20260509032004 | 11 | 13 | 9.7 | 12.9 | 0.00 | 1.04 | 0.00 | 81 | 1015.0 |
| 20260509031504 | 11 | 8 | 8.0 | 11.3 | 0.00 | 1.04 | 0.00 | 81 | 1014.9 |
| 20260509031025 | 11 | 13 | 9.7 | 12.9 | 0.00 | 1.04 | 0.00 | 81 | 1015.0 |
| 20260509030504 | 11 | 11 | 8.0 | 12.9 | 0.00 | 1.04 | 0.00 | 81 | 1015.0 |
| 20260509030004 | 11 | 9 | 6.4 | 8.0 | 0.00 | 1.04 | 0.00 | 82 | 1015.2 |
| 20260509025504 | 11 | 20 | 6.4 | 8.0 | 0.00 | 1.04 | 0.00 | 82 | 1015.2 |
| 20260509025004 | 11 | 25 | 6.4 | 9.7 | 0.00 | 1.04 | 0.00 | 82 | 1015.1 |
| 20260509024504 | 11 | 28 | 8.0 | 12.9 | 0.00 | 1.04 | 0.00 | 83 | 1015.0 |
| 20260509024004 | 11 | 33 | 8.0 | 12.9 | 0.00 | 1.04 | 0.00 | 83 | 1015.0 |
| 20260509023504 | 11 | 25 | 6.4 | 8.0 | 0.00 | 1.04 | 0.00 | 83 | 1014.9 |
| 20260509023004 | 11 | 24 | 6.4 | 8.0 | 0.00 | 1.04 | 0.00 | 83 | 1014.7 |
| 20260509022504 | 11 | 23 | 6.4 | 8.0 | 0.00 | 1.04 | 0.00 | 83 | 1014.8 |
| 20260509022004 | 11 | 10 | 6.4 | 6.4 | 0.00 | 1.04 | 0.00 | 84 | 1014.8 |
| 20260509021504 | 11 | 14 | 6.4 | 11.3 | 0.00 | 1.04 | 0.00 | 84 | 1014.9 |
| 20260509021004 | 11 | 21 | 9.7 | 11.3 | 0.00 | 1.04 | 0.00 | 85 | 1014.9 |
| 20260509020525 | 11 | 18 | 11.3 | 12.9 | 0.00 | 1.04 | 0.00 | 86 | 1014.9 |
| 20260509020004 | 11 | 17 | 9.7 | 12.9 | 0.00 | 1.04 | 0.00 | 86 | 1015.2 |
| 20260509015504 | 11 | 14 | 9.7 | 11.3 | 0.00 | 1.04 | 0.00 | 86 | 1015.0 |
| 20260509015003 | 11 | 11 | 9.7 | 11.3 | 0.00 | 1.04 | 0.00 | 86 | 1015.3 |
| 20260509014524 | 11 | 14 | 8.0 | 9.7 | 0.00 | 1.04 | 0.00 | 86 | 1015.1 |
| 20260509014004 | 11 | 9 | 6.4 | 9.7 | 0.00 | 1.04 | 0.00 | 86 | 1015.2 |
| 20260509013504 | 11 | 5 | 6.4 | 8.0 | 0.00 | 1.04 | 0.00 | 85 | 1015.3 |
| 20260509013004 | 11 | 7 | 6.4 | 8.0 | 0.00 | 1.04 | 0.00 | 85 | 1015.3 |
| 20260509012504 | 11 | 9 | 4.8 | 6.4 | 0.00 | 1.04 | 0.00 | 85 | 1015.5 |
| 20260509012004 | 11 | 12 | 4.8 | 6.4 | 0.00 | 1.04 | 0.00 | 84 | 1015.2 |
| 20260509011524 | 11 | 13 | 4.8 | 6.4 | 0.00 | 1.04 | 0.00 | 84 | 1015.5 |
| 20260509011025 | 11 | 4 | 6.4 | 6.4 | 0.00 | 1.04 | 0.00 | 83 | 1015.5 |
| 20260509010504 | 11 | 3 | 6.4 | 6.4 | 0.00 | 1.04 | 0.00 | 83 | 1015.2 |
| 20260509010004 | 11 | 10 | 8.0 | 12.9 | 0.00 | 1.04 | 0.00 | 83 | 1015.5 |
| 20260509005524 | 11 | 15 | 9.7 | 12.9 | 0.00 | 1.04 | 0.00 | 82 | 1015.3 |
| 20260509005004 | 11 | 14 | 9.7 | 11.3 | 0.00 | 1.04 | 0.00 | 82 | 1015.2 |
| 20260509004503 | 12 | 11 | 8.0 | 9.7 | 0.00 | 1.04 | 0.00 | 82 | 1015.3 |
| 20260509004003 | 12 | 8 | 8.0 | 9.7 | 0.00 | 1.04 | 0.00 | 82 | 1015.3 |
| 20260509003503 | 12 | 9 | 8.0 | 8.0 | 0.00 | 1.04 | 0.00 | 79 | 1015.2 |
| 20260509003025 | 12 | 13 | 6.4 | 8.0 | 0.00 | 1.04 | 0.00 | 80 | 1015.5 |
| 20260509002504 | 12 | 12 | 8.0 | 9.7 | 0.00 | 1.04 | 0.00 | 80 | 1015.3 |
| 20260509002025 | 12 | 14 | 8.0 | 9.7 | 0.00 | 1.04 | 0.00 | 79 | 1015.3 |
| 20260509001504 | 12 | 10 | 4.8 | 6.4 | 0.00 | 1.04 | 0.00 | 79 | 1015.2 |
| 20260509001004 | 12 | 338 | 3.2 | 4.8 | 0.00 | 1.04 | 0.00 | 79 | 1015.2 |
| 20260509000504 | 12 | 352 | 4.8 | 6.4 | 0.00 | 1.04 | 0.00 | 79 | 1015.1 |
| 20260509000004 | 12 | 22 | 6.4 | 6.4 | 0.00 | 1.04 | 0.00 | 79 | 1015.3 |
| 20260508235524 | 12 | 18 | 6.4 | 8.0 | 0.00 | 1.04 | 0.00 | 79 | 1015.2 |
| 20260508235025 | 12 | 12 | 6.4 | 8.0 | 0.00 | 1.04 | 0.00 | 79 | 1015.2 |
| 20260508234503 | 12 | 11 | 8.0 | 8.0 | 0.00 | 1.04 | 0.00 | 80 | 1015.0 |
| 20260508234004 | 12 | 17 | 8.0 | 9.7 | 0.00 | 1.04 | 0.00 | 80 | 1015.1 |
| 20260508233504 | 12 | 20 | 8.0 | 9.7 | 0.00 | 1.04 | 0.00 | 80 | 1015.2 |
| 20260508233003 | 12 | 14 | 8.0 | 9.7 | 0.00 | 1.04 | 0.00 | 79 | 1015.1 |
| 20260508232504 | 12 | 11 | 8.0 | 8.0 | 0.00 | 1.04 | 0.00 | 79 | 1015.0 |
| 20260508232003 | 12 | 12 | 8.0 | 12.9 | 0.00 | 1.04 | 0.00 | 79 | 1015.2 |
| 20260508231003 | 12 | 15 | 9.7 | 12.9 | 0.00 | 1.04 | 0.00 | 80 | 1014.9 |
| 20260508230503 | 12 | 14 | 8.0 | 9.7 | 0.00 | 1.04 | 0.00 | 80 | 1015.0 |
| 20260508230003 | 12 | 12 | 8.0 | 9.7 | 0.00 | 1.04 | 0.00 | 80 | 1014.9 |
| 20260508225503 | 12 | 12 | 8.0 | 9.7 | 0.00 | 1.04 | 0.00 | 80 | 1015.1 |
| 20260508225003 | 12 | 14 | 6.4 | 9.7 | 0.00 | 1.04 | 0.00 | 80 | 1015.0 |
| 20260508224503 | 12 | 7 | 3.2 | 8.0 | 0.00 | 1.04 | 0.00 | 80 | 1015.2 |
| 20260508224003 | 12 | 6 | 1.6 | 3.2 | 0.00 | 1.04 | 0.00 | 80 | 1015.3 |
| 20260508223503 | 12 | 11 | 1.6 | 3.2 | 0.00 | 1.04 | 0.00 | 79 | 1015.2 |
| 20260508223003 | 12 | 17 | 0.0 | 3.2 | 0.00 | 1.04 | 0.00 | 79 | 1015.2 |
| 20260508222503 | 12 | 18 | 0.0 | 3.2 | 0.00 | 1.04 | 0.00 | 79 | 1015.2 |
| 20260508222003 | 12 | 21 | 1.6 | 4.8 | 0.00 | 1.04 | 0.00 | 80 | 1015.2 |
| 20260508221503 | 13 | 19 | 3.2 | 4.8 | 0.00 | 1.04 | 0.00 | 80 | 1015.2 |
| 20260508221003 | 13 | 19 | 3.2 | 4.8 | 0.00 | 1.04 | 0.00 | 80 | 1015.3 |
| 20260508220503 | 13 | 22 | 3.2 | 4.8 | 0.00 | 1.04 | 0.00 | 81 | 1015.1 |
| 20260508220003 | 13 | 21 | 1.6 | 4.8 | 0.00 | 1.04 | 0.00 | 81 | 1015.2 |
| 20260508215503 | 13 | 19 | 1.6 | 3.2 | 0.00 | 1.04 | 1.04 | 80 | 1015.0 |
| 20260508215003 | 12 | 19 | 0.0 | 3.2 | 0.00 | 1.04 | 1.04 | 80 | 1015.1 |
| 20260508214503 | 12 | 360 | 0.0 | 1.6 | 0.00 | 1.04 | 1.04 | 80 | 1015.1 |
| 20260508214024 | 12 | 22 | 0.0 | 1.6 | 0.00 | 1.04 | 1.04 | 80 | 1015.0 |
| 20260508213503 | 12 | 19 | 0.0 | 1.6 | 0.00 | 1.04 | 1.04 | 80 | 1015.1 |
| 20260508213003 | 12 | 17 | 0.0 | 1.6 | 0.00 | 1.04 | 1.04 | 80 | 1015.1 |
| 20260508212503 | 13 | 351 | 1.6 | 3.2 | 0.00 | 1.04 | 1.04 | 80 | 1015.2 |
| 20260508212003 | 13 | 3 | 3.2 | 4.8 | 0.00 | 1.04 | 1.04 | 79 | 1015.0 |
| 20260508211503 | 13 | 7 | 4.8 | 6.4 | 0.00 | 1.04 | 1.04 | 79 | 1015.0 |
| 20260508211003 | 13 | 359 | 4.8 | 6.4 | 0.00 | 1.04 | 1.04 | 79 | 1015.1 |
| 20260508210524 | 13 | 1 | 4.8 | 6.4 | 0.00 | 1.04 | 1.04 | 79 | 1015.0 |
| 20260508210024 | 13 | 8 | 3.2 | 6.4 | 0.00 | 1.04 | 1.04 | 80 | 1015.0 |
| 20260508205503 | 13 | 0 | 0.0 | 0.0 | 0.00 | 1.04 | 1.04 | 79 | 1015.1 |
| 20260508205024 | 13 | 0 | 0.0 | 0.0 | 0.00 | 1.04 | 1.04 | 78 | 1014.9 |
| 20260508204503 | 13 | 0 | 0.0 | 0.0 | 0.00 | 1.04 | 1.04 | 78 | 1014.9 |
| 20260508204003 | 13 | 0 | 0.0 | 0.0 | 0.00 | 1.04 | 1.04 | 78 | 1014.9 |
| 20260508203503 | 13 | 0 | 0.0 | 0.0 | 0.00 | 1.04 | 1.04 | 78 | 1014.9 |
| 20260508203003 | 13 | 0 | 0.0 | 0.0 | 0.00 | 1.04 | 1.04 | 79 | 1014.9 |
| 20260508202503 | 13 | 0 | 0.0 | 0.0 | 0.00 | 1.04 | 1.04 | 78 | 1014.9 |
| 20260508202003 | 13 | 0 | 0.0 | 0.0 | 0.00 | 1.04 | 1.04 | 78 | 1015.0 |
| 20260508201503 | 13 | 0 | 0.0 | 0.0 | 0.00 | 1.04 | 1.04 | 78 | 1014.9 |
| 20260508201003 | 13 | 0 | 0.0 | 0.0 | 0.00 | 1.04 | 1.04 | 78 | 1014.9 |
| 20260508200503 | 13 | 0 | 0.0 | 0.0 | 0.00 | 1.04 | 1.04 | 78 | 1014.9 |
| 20260508200003 | 13 | 0 | 0.0 | 0.0 | 0.00 | 1.04 | 1.04 | 78 | 1014.8 |
| 20260508195503 | 13 | 0 | 0.0 | 0.0 | 0.00 | 1.04 | 1.04 | 77 | 1014.8 |
| 20260508195003 | 13 | 0 | 0.0 | 0.0 | 0.00 | 1.04 | 1.04 | 77 | 1014.7 |
| 20260508194524 | 13 | 0 | 0.0 | 0.0 | 0.00 | 1.04 | 1.04 | 77 | 1014.8 |
| 20260508194003 | 13 | 0 | 0.0 | 0.0 | 0.00 | 1.04 | 1.04 | 76 | 1014.6 |
| 20260508193503 | 13 | 0 | 0.0 | 0.0 | 0.00 | 1.04 | 1.04 | 76 | 1014.6 |
| 20260508193003 | 14 | 0 | 0.0 | 0.0 | 0.00 | 1.04 | 1.04 | 76 | 1014.4 |
| 20260508192524 | 14 | 0 | 0.0 | 0.0 | 0.00 | 1.04 | 1.04 | 77 | 1014.5 |
| 20260508192024 | 14 | 0 | 0.0 | 0.0 | 0.00 | 1.04 | 1.04 | 77 | 1014.3 |
| 20260508191503 | 14 | 0 | 0.0 | 0.0 | 0.00 | 1.04 | 1.04 | 76 | 1014.2 |
| 20260508191024 | 14 | 0 | 0.0 | 0.0 | 0.00 | 1.04 | 1.04 | 77 | 1014.2 |
| 20260508190503 | 15 | 0 | 0.0 | 0.0 | 0.00 | 1.04 | 1.04 | 78 | 1014.2 |
| 20260508190024 | 15 | 0 | 0.0 | 0.0 | 0.00 | 1.04 | 1.04 | 78 | 1014.0 |
| 20260508185503 | 15 | 0 | 0.0 | 0.0 | 0.00 | 1.04 | 1.04 | 78 | 1013.9 |
| 20260508185003 | 15 | 0 | 0.0 | 0.0 | 0.00 | 1.04 | 1.04 | 78 | 1013.9 |
| 20260508184504 | 15 | 0 | 0.0 | 0.0 | 0.00 | 1.04 | 1.04 | 79 | 1013.9 |
| 20260508184024 | 15 | 0 | 0.0 | 0.0 | 0.00 | 1.04 | 1.04 | 79 | 1013.9 |
| 20260508183503 | 15 | 0 | 0.0 | 0.0 | 0.00 | 1.04 | 1.04 | 78 | 1013.7 |
| 20260508183024 | 15 | 0 | 0.0 | 0.0 | 0.00 | 1.04 | 1.04 | 77 | 1013.7 |
| 20260508182503 | 16 | 0 | 0.0 | 0.0 | 0.00 | 1.04 | 1.04 | 76 | 1013.7 |
| 20260508182003 | 16 | 0 | 0.0 | 0.0 | 0.00 | 1.04 | 1.04 | 76 | 1013.7 |
| 20260508181503 | 16 | 0 | 0.0 | 0.0 | 0.00 | 1.04 | 1.04 | 76 | 1013.6 |
| 20260508181003 | 16 | 0 | 0.0 | 0.0 | 0.00 | 1.04 | 1.04 | 76 | 1013.8 |
| 20260508180503 | 16 | 0 | 0.0 | 0.0 | 0.00 | 1.04 | 1.04 | 76 | 1013.7 |
| 20260508180003 | 16 | 360 | 0.0 | 1.6 | 0.00 | 1.04 | 1.04 | 76 | 1013.9 |